This demonstration page uses our WeatherBlox Daily Observations layout. Learn more.

Left ArrowRight Arrow

39.95238, -75.16362

Hourly Observations for June 19, 2022

Temp ( °F °C ) Dew Point ( °F °C ) Humidity (%) Winds ( mph kmh ) Pressure ( in mb ) Visibility ( mi km ) Precip ( " mm )
12:54 am 00:54 Mostly Clear 65 18.3 38 3.3 37 37 WNW 9 15 29.95 1014 10 16 0.00 0.00
1:54 am 01:54 Mostly Clear 63 17.2 37 2.8 38 38 NW 12 19 29.96 1014 10 16 0.00 0.00
2:54 am 02:54 Clear 62 16.7 38 3.3 41 41 WNW 8 13 29.96 1015 10 16 0.00 0.00
3:54 am 03:54 Clear 61 16.1 38 3.3 43 43 WNW 6 9 29.98 1015 10 16 0.00 0.00
4:54 am 04:54 Mostly Clear 60 15.6 39 3.9 46 46 WNW 8 13 29.98 1015 10 16 0.00 0.00
5:54 am 05:54 Mostly Sunny 59 15 39 3.9 48 48 WNW 7 11 30.00 1016 10 16 0.00 0.00
6:54 am 06:54 Mostly Sunny 60 15.6 39 3.9 46 46 NNW 14 22 30.01 1016 10 16 0.00 0.00
7:54 am 07:54 Mostly Sunny 61 16.1 38 3.3 43 43 NW 20 31 30.01 1016 10 16 0.00 0.00
8:54 am 08:54 Mostly Sunny 63 17.2 38 3.3 40 40 NNW 23 37 30.03 1017 10 16 0.00 0.00
9:54 am 09:54 Mostly Sunny 64 17.8 38 3.3 38 38 NW 18 30 30.03 1017 10 16 0.00 0.00
10:54 am 10:54 Mostly Sunny 67 19.4 39 3.9 36 36 NNW 18 30 30.03 1017 10 16 0.00 0.00
11:54 am 11:54 Mostly Sunny 68 20 39 3.9 35 35 NW 16 26 30.02 1017 10 16 0.00 0.00
12:54 pm 12:54 Mostly Sunny 70 21.1 39 3.9 32 32 NW 17 28 30.01 1016 10 16 0.00 0.00
1:54 pm 13:54 Mostly Sunny 72 22.2 41 5 33 33 NNW 18 30 30.00 1016 10 16 0.00 0.00
2:54 pm 14:54 Mostly Sunny 74 23.3 41 5 31 31 NW 23 37 29.99 1016 10 16 0.00 0.00
3:54 pm 15:54 Mostly Sunny 75 23.9 39 3.9 27 27 WNW 20 31 29.98 1015 10 16 0.00 0.00
4:54 pm 16:54 Mostly Sunny 76 24.4 40 4.4 27 27 NW 16 26 29.97 1015 10 16 0.00 0.00
5:54 pm 17:54 Mostly Sunny 77 25 38 3.3 24 24 NW 20 31 29.97 1015 10 16 0.00 0.00
6:54 pm 18:54 Mostly Sunny 76 24.4 38 3.3 25 25 NW 20 31 29.98 1015 10 16 0.00 0.00
7:54 pm 19:54 Mostly Sunny 74 23.3 36 2.2 25 25 NNW 14 22 30.00 1016 10 16 0.00 0.00
8:54 pm 20:54 Mostly Clear 71 21.7 35 1.7 27 27 N 8 13 30.02 1017 10 16 0.00 0.00
9:54 pm 21:54 Mostly Clear 68 20 35 1.7 30 30 N 12 19 30.05 1018 10 16 0.00 0.00
10:54 pm 22:54 Mostly Clear 67 19.4 35 1.7 31 31 N 14 22 30.08 1019 10 16 0.00 0.00
11:54 pm 23:54 Clear 65 18.3 37 2.8 36 36 N 14 22 30.11 1020 10 16 0.00 0.00

Powered by AerisWeather